[[{"header":{"parameterUnit":"m.s-1","parameterCategory":1,"la1":30.2991,"la2":30.254,"lo1":-89.0895,"lo2":-89.0444,"dy":0.0017,"dx":0.0017,"nx":28,"ny":28,"refTime":"2025-12-20T03:00:00:Z","depth":0,"parameterNumber":2,"parameterNumberName":"U-component_of_WINDS"},"data":[0,0,0,0,0,0,0,0,0,0,0,0,0,0,0,0,0,0,0,0,0,0,0,0,0,0,0,0,0,0,0,0,0,0,0,0,0,0,0,0,0,0,0,0,0,0,0,0,0,0,0,0,0,0,0,0,0,0,-0.8672,-0.8673,0,-0.8751,-0.8752,-0.8753,-0.8761,-0.876,-0.8759,-0.8758,-0.8841,-0.8844,-0.8847,0,0,0,0,0,0,0,0,0,0,0,0,0,-0.8529,-0.8532,-0.8672,-0.8673,-0.8674,-0.8751,-0.8752,-0.8753,-0.8761,-0.876,-0.8759,-0.8758,-0.884,-0.8843,-0.8847,0,0,0,0,0,0,0,0,0,0,0,0,0,-0.8598,-0.8533,-0.8672,-0.8687,-0.8689,-0.8751,-0.8752,-0.8754,-0.8761,-0.876,-0.8758,-0.8757,-0.8839,-0.8843,-0.8847,-0.89,0,0,-0.8861,-0.8863,0,0,0,0,0,0,0,0,-0.8594,-0.8603,-0.8684,-0.8686,-0.8689,-0.8745,-0.8732,-0.8803,-0.8761,-0.8734,-0.8758,-0.8757,-0.881,-0.8817,-0.8834,-0.8904,-0.8907,-0.8862,-0.8864,-0.8866,-0.8867,0,0,0,0,0,0,0,-0.8589,-0.86,-0.8703,-0.8685,-0.8688,-0.8691,-0.8699,-0.8746,-0.8778,-0.8736,-0.8737,-0.8746,-0.8811,-0.883,-0.8836,-0.8909,-0.8861,-0.8865,-0.8868,-0.887,-0.9026,-0.9028,0,0,0,0,0,0,-0.8582,-0.8596,-0.8701,-0.8706,-0.8637,-0.8694,-0.8703,-0.8728,-0.8777,-0.8784,-0.8747,-0.8746,-0.8823,-0.8831,-0.8839,-0.8904,-0.8866,-0.887,-0.8873,-0.9025,-0.9027,-0.9028,0,0,0,0,0,0,-0.8579,-0.8591,-0.8698,-0.8651,-0.8665,-0.8698,-0.8725,-0.873,-0.8749,-0.8786,-0.8792,-0.876,-0.8822,-0.8833,-0.8885,-0.8907,-0.8872,-0.8876,-0.9023,-0.9025,-0.9027,-0.9035,0,0,0,0,0,0,-0.8574,-0.859,-0.8609,-0.8652,-0.8667,-0.8741,-0.8727,-0.8733,-0.8757,-0.8756,-0.88,-0.8806,-0.8822,-0.8878,-0.8889,-0.8913,-0.888,-0.9021,-0.9024,-0.9027,-0.9033,-0.9037,-0.9041,0,0,0,0,0,-0.8569,-0.8609,-0.861,-0.8623,-0.8693,-0.8743,-0.8752,-0.8769,-0.8758,-0.8779,-0.8803,-0.8804,-0.8903,-0.8884,-0.8896,-0.8921,-0.902,-0.9023,-0.9027,-0.9031,-0.9036,-0.9041,0,0,0,0,0,0,-0.8569,-0.8614,-0.8617,-0.8671,-0.8703,-0.8744,-0.877,-0.8774,-0.881,-0.8808,-0.8829,-0.8839,-0.889,-0.8911,-0.8888,-0.8975,-0.8961,-0.8967,-0.896,-0.8965,-0.8969,-0.8963,-0.8884,0,0,0,0,0,-0.8575,-0.8611,-0.8649,-0.8693,-0.8709,-0.8737,-0.8759,-0.877,-0.8804,-0.8818,-0.8845,-0.8879,-0.8917,-0.8942,-0.898,-0.9036,-0.9046,-0.906,-0.9064,-0.9067,-0.9072,-0.9104,-0.911,-0.9039,-0.9039,-0.9039,0,0,-0.8588,-0.8617,-0.8639,-0.8694,-0.872,-0.8757,-0.8748,-0.8788,-0.8816,-0.8824,-0.8875,-0.8896,-0.8935,-0.8989,-0.9015,-0.9008,-0.9094,-0.9071,-0.9073,-0.9077,-0.9108,-0.9114,-0.912,-0.9041,-0.9041,-0.9041,0,0,-0.8631,-0.8656,-0.8696,-0.8722,-0.8762,-0.878,-0.879,-0.883,-0.8845,-0.8896,-0.8902,-0.8937,-0.9003,-0.9031,-0.9053,-0.9108,-0.9111,-0.9119,-0.914,-0.9171,-0.9176,-0.9181,-0.9201,-0.9208,-0.9124,-0.9124,-0.9124,0,-0.8642,-0.8698,-0.8716,-0.8756,-0.878,-0.8789,-0.8829,-0.8854,-0.8904,-0.8921,-0.8913,-0.8997,-0.9024,-0.9085,-0.9098,-0.9116,-0.9128,-0.9114,-0.9174,-0.9179,-0.9184,-0.9203,-0.9211,-0.9125,-0.9125,-0.9125,-0.9125,0,-0.871,-0.8749,-0.8777,-0.8824,-0.8852,-0.8892,-0.8916,-0.8942,-0.8951,-0.8971,-0.9023,-0.9056,-0.91,-0.9116,-0.9125,-0.9179,-0.9173,-0.917,-0.9155,-0.9192,-0.921,-0.9217,-0.9126,-0.9126,-0.9126,-0.9125,0,0,-0.8754,-0.8811,-0.8821,-0.8843,-0.8888,-0.8918,-0.896,-0.9003,-0.9025,-0.9059,-0.9094,-0.9151,-0.9148,-0.9173,-0.9186,-0.9213,-0.9254,-0.9206,-0.9207,-0.9214,-0.9316,-0.9318,-0.9326,-0.9257,-0.9258,-0.926,-0.9313,0,-0.8802,-0.8874,-0.8892,-0.8954,-0.8991,-0.9,-0.9036,-0.9068,-0.9087,-0.9122,-0.9144,-0.9183,-0.9176,-0.9192,-0.9219,-0.9243,-0.9275,-0.924,-0.9291,-0.9292,-0.928,-0.9336,-0.9338,-0.9387,-0.932,-0.9321,-0.9322,0,-0.8867,-0.8903,-0.8968,-0.9009,-0.9025,-0.9056,-0.9098,-0.9131,-0.9167,-0.918,-0.9209,-0.9219,-0.9263,-0.9246,-0.9308,-0.9283,-0.9305,-0.9321,-0.9323,-0.9328,-0.9309,-0.9343,-0.9403,-0.941,-0.9333,-0.9333,-0.9332,0,-0.8893,-0.8957,-0.9005,-0.9023,-0.9071,-0.9094,-0.9115,-0.915,-0.9175,-0.9212,-0.9228,-0.927,-0.9292,-0.9325,-0.9346,-0.9332,-0.9406,-0.9391,-0.9418,-0.9417,-0.9432,-0.9431,-0.9497,-0.9447,-0.9447,-0.9447,-0.9446,0,-0.8944,-0.8984,-0.9017,-0.9046,-0.9091,-0.9112,-0.9156,-0.9178,-0.921,-0.9244,-0.9255,-0.9287,-0.9313,-0.9349,-0.9366,-0.9415,-0.9425,-0.9437,-0.9441,-0.9436,-0.9434,-0.945,-0.9447,-0.9449,-0.9448,-0.9448,-0.9447,0,-0.898,-0.9004,-0.9056,-0.9098,-0.9109,-0.914,-0.9176,-0.9206,-0.9226,-0.9269,-0.9281,-0.9312,-0.9356,-0.938,-0.9434,-0.9446,-0.95,-0.9502,-0.9487,-0.9489,-0.9514,-0.9512,-0.9593,-0.9605,-0.9546,-0.9547,-0.9547,0,-0.9011,-0.9042,-0.9087,-0.911,-0.9131,-0.9169,-0.9195,-0.9217,-0.9243,-0.9287,-0.9312,-0.9355,-0.9391,-0.946,-0.9488,-0.953,-0.9534,-0.9559,-0.954,-0.9534,-0.9534,-0.9532,-0.9536,-0.9562,-0.9563,-0.9563,-0.9564,0,-0.9064,-0.9074,-0.911,-0.9151,-0.9181,-0.9214,-0.9247,-0.9266,-0.9293,-0.9323,-0.9366,-0.9394,-0.945,-0.9493,-0.9538,-0.9561,-0.9567,-0.957,-0.9578,-0.9573,-0.9563,-0.9569,-0.9496,-0.9568,-0.9567,-0.9567,-0.9567,-0.9566,-0.9099,-0.9127,-0.9162,-0.9202,-0.9229,-0.926,-0.929,-0.9314,-0.935,-0.9397,-0.9408,-0.9454,-0.9491,-0.9551,-0.9575,-0.9612,-0.9608,-0.962,-0.9623,-0.9626,-0.9627,-0.9557,-0.9621,-0.962,-0.962,-0.962,-0.962,0,-0.9152,-0.9176,-0.9212,-0.9258,-0.929,-0.9292,-0.9329,-0.9356,-0.9396,-0.943,-0.9465,-0.9516,-0.9558,-0.959,-0.9634,-0.9658,-0.9662,-0.9668,-0.9667,-0.9672,-0.9628,-0.9616,-0.9664,-0.9664,-0.9664,-0.9664,-0.9664,-0.9664,-0.9183,-0.9231,-0.9246,-0.9307,-0.9331,-0.9376,-0.9397,-0.9425,-0.9452,-0.9508,-0.9543,-0.9564,-0.9597,-0.9643,-0.9683,-0.9691,-0.9707,-0.9713,-0.9722,-0.968,-0.9675,-0.9671,-0.966,-0.9716,-0.9716,-0.9763,-0.9763,-0.9764]},{"header":{"parameterUnit":"m.s-1","parameterCategory":1,"la1":30.2991,"la2":30.254,"lo1":-89.0895,"lo2":-89.0444,"dy":0.0017,"dx":0.0017,"nx":28,"ny":28,"refTime":"2025-12-20T03:00:00:Z","depth":0,"parameterNumber":3,"parameterNumberName":"V-component_of_WINDS"},"data":[0,0,0,0,0,0,0,0,0,0,0,0,0,0,0,0,0,0,0,0,0,0,0,0,0,0,0,0,0,0,0,0,0,0,0,0,0,0,0,0,0,0,0,0,0,0,0,0,0,0,0,0,0,0,0,0,0,0,0.9365,0.9365,0,0.9374,0.9374,0.9374,0.9385,0.9385,0.9385,0.9385,0.9394,0.9394,0.9395,0,0,0,0,0,0,0,0,0,0,0,0,0,0.9356,0.9356,0.9365,0.9365,0.9365,0.9374,0.9374,0.9374,0.9385,0.9385,0.9385,0.9385,0.9394,0.9394,0.9395,0,0,0,0,0,0,0,0,0,0,0,0,0,0.9362,0.9356,0.9365,0.9371,0.9372,0.9374,0.9374,0.9374,0.9385,0.9385,0.9385,0.9386,0.9394,0.9394,0.9395,0.9391,0,0,0.9395,0.9395,0,0,0,0,0,0,0,0,0.9362,0.9362,0.937,0.9371,0.9372,0.9379,0.9374,0.938,0.9385,0.938,0.9385,0.9386,0.9389,0.939,0.9391,0.9391,0.9391,0.9395,0.9395,0.9395,0.9395,0,0,0,0,0,0,0,0.9361,0.9362,0.9368,0.937,0.9371,0.9374,0.9375,0.9375,0.9383,0.938,0.9381,0.9382,0.9389,0.9391,0.9391,0.9391,0.9395,0.9395,0.9395,0.9395,0.9389,0.9389,0,0,0,0,0,0,0.936,0.9362,0.9368,0.9369,0.9367,0.9374,0.9375,0.9376,0.9383,0.9384,0.9382,0.9383,0.939,0.9391,0.9391,0.9387,0.9395,0.9395,0.9395,0.9389,0.9389,0.9389,0,0,0,0,0,0,0.936,0.936,0.9368,0.9365,0.9367,0.9374,0.9375,0.9376,0.9377,0.9384,0.9386,0.9382,0.939,0.9391,0.9391,0.9388,0.9395,0.9395,0.939,0.9389,0.9389,0.9378,0,0,0,0,0,0,0.9359,0.936,0.9359,0.9365,0.9367,0.9367,0.9375,0.9376,0.9378,0.9379,0.9384,0.9386,0.9391,0.939,0.9391,0.9388,0.9396,0.939,0.9389,0.9389,0.9379,0.9378,0.9377,0,0,0,0,0,0.9359,0.9355,0.9359,0.9359,0.9365,0.9367,0.9367,0.9374,0.9377,0.9376,0.938,0.9385,0.9388,0.939,0.9391,0.9388,0.939,0.9389,0.9389,0.938,0.9378,0.9377,0,0,0,0,0,0,0.9348,0.9356,0.936,0.9358,0.9362,0.9369,0.9367,0.9372,0.9374,0.9375,0.9382,0.9383,0.9382,0.9385,0.9387,0.9384,0.939,0.9389,0.9382,0.9381,0.938,0.9379,0.9396,0,0,0,0,0,0.9345,0.9346,0.9353,0.9351,0.9353,0.936,0.9361,0.9365,0.9369,0.937,0.9375,0.9378,0.938,0.938,0.9382,0.938,0.9381,0.9378,0.9377,0.9376,0.9375,0.9374,0.9372,0.9387,0.9387,0.9387,0,0,0.934,0.9345,0.9345,0.9349,0.9352,0.9353,0.9361,0.9361,0.9362,0.937,0.937,0.9374,0.9378,0.9376,0.9376,0.9379,0.9371,0.9375,0.9374,0.9374,0.9373,0.9372,0.9371,0.9386,0.9387,0.9387,0,0,0.933,0.9334,0.9333,0.9336,0.9341,0.9345,0.9345,0.9351,0.9354,0.9354,0.936,0.9361,0.9364,0.9366,0.9368,0.936,0.9365,0.936,0.9354,0.9353,0.9352,0.9351,0.9348,0.9347,0.936,0.936,0.936,0,0.9323,0.9324,0.9331,0.9331,0.9333,0.9341,0.934,0.9343,0.9348,0.9349,0.9352,0.9355,0.9359,0.9358,0.9356,0.9357,0.9357,0.936,0.9351,0.935,0.935,0.9347,0.9346,0.9359,0.9359,0.9359,0.936,0,0.9315,0.9316,0.9314,0.9319,0.9321,0.932,0.9327,0.9328,0.9332,0.9336,0.9336,0.9341,0.9344,0.9344,0.9348,0.9344,0.9346,0.935,0.9355,0.9347,0.9345,0.9344,0.9359,0.9359,0.9359,0.9359,0,0,0.9298,0.9307,0.9307,0.9309,0.9315,0.9316,0.9316,0.9319,0.9319,0.9323,0.9323,0.9325,0.9329,0.9331,0.9336,0.9335,0.9328,0.9339,0.9339,0.9337,0.9324,0.932,0.9319,0.9331,0.9331,0.9331,0.9323,0,0.929,0.929,0.9296,0.9295,0.9296,0.9304,0.9303,0.9307,0.9311,0.9312,0.9317,0.9318,0.9324,0.9325,0.9324,0.9329,0.9325,0.933,0.9331,0.9331,0.933,0.9318,0.9314,0.9306,0.9322,0.9322,0.9322,0,0.928,0.9283,0.9281,0.9288,0.9288,0.9288,0.9291,0.9293,0.9297,0.93,0.9302,0.9308,0.9308,0.9313,0.9314,0.9317,0.9318,0.932,0.932,0.932,0.9326,0.9317,0.9304,0.9303,0.9321,0.9321,0.9321,0,0.9268,0.9271,0.9271,0.9273,0.928,0.928,0.9283,0.9288,0.9289,0.9292,0.9293,0.9296,0.9298,0.93,0.9306,0.9309,0.9306,0.9311,0.9308,0.9308,0.9307,0.9306,0.9293,0.9307,0.9307,0.9308,0.9308,0,0.9257,0.9256,0.9266,0.9265,0.9264,0.9272,0.927,0.9274,0.9278,0.9279,0.9286,0.9286,0.9294,0.9296,0.93,0.93,0.9301,0.9303,0.9304,0.9302,0.9302,0.9303,0.9304,0.9307,0.9307,0.9307,0.9307,0,0.9244,0.925,0.925,0.9257,0.9259,0.9258,0.9264,0.9264,0.9269,0.9269,0.927,0.9277,0.9279,0.9285,0.9289,0.9292,0.929,0.9292,0.9288,0.9289,0.9285,0.9286,0.9272,0.927,0.9286,0.9286,0.9286,0,0.9237,0.9236,0.9243,0.9244,0.9247,0.9248,0.925,0.9257,0.9259,0.9264,0.9263,0.9266,0.9268,0.9271,0.9276,0.9279,0.9281,0.9277,0.9282,0.928,0.9281,0.9281,0.9281,0.9275,0.9275,0.9275,0.9275,0,0.9223,0.9227,0.9229,0.9232,0.9234,0.9237,0.924,0.9241,0.9249,0.925,0.9252,0.9254,0.9258,0.926,0.9264,0.9267,0.9272,0.9273,0.9272,0.927,0.9268,0.9269,0.9285,0.9273,0.9273,0.9274,0.9274,0.9274,0.9213,0.9212,0.9217,0.922,0.9223,0.9226,0.9227,0.9231,0.9233,0.9237,0.9241,0.9243,0.9247,0.9253,0.9256,0.9257,0.926,0.9259,0.9259,0.9258,0.9257,0.9268,0.9258,0.9258,0.9258,0.9258,0.9258,0,0.92,0.9203,0.9205,0.921,0.9212,0.9217,0.9221,0.9222,0.9223,0.9227,0.923,0.9232,0.9235,0.924,0.9243,0.9243,0.9246,0.9244,0.9244,0.9245,0.9255,0.9255,0.9242,0.9242,0.9242,0.9242,0.9242,0.9242,0.9193,0.9193,0.9197,0.9199,0.9202,0.9204,0.9206,0.9209,0.9212,0.9215,0.9217,0.9221,0.9225,0.9229,0.9231,0.9233,0.9234,0.9231,0.9233,0.9242,0.9244,0.9245,0.9246,0.9231,0.9231,0.9223,0.9223,0.9223]}]]